Theta_e
307 307 307 307 307 306 305 304 303 303 304 304 304 305 305 307 306 304 301 300 295 290 291 293 293 288 287 287 286 290 289 286 284 281 281 278 281 284 284 287 285 284 282 282 283 280 279 290 290 289 294 295 301 302
307 307 306 305 304 303 303 303 302 302 303 303 303 304 304 306 307 306 298 301 301 293 292 297 297 298 296 294 290 292 292 291 285 286 281 282 284 284 284 281 291 283 286 283 284 284 291 290 290 293 295 297 302 303
306 305 304 303 302 302 301 301 301 301 301 302 302 303 303 305 305 305 300 301 297 293 292 288 289 294 295 297 298 288 294 294 292 295 289 287 284 287 282 285 288 289 294 288 288 291 293 294 298 299 302 302 305 305
303 302 301 300 300 300 300 300 300 300 300 300 301 302 303 304 304 304 300 302 298 294 286 287 296 294 299 296 295 296 296 295 295 294 289 287 285 291 287 290 289 290 290 290 289 292 295 296 298 301 302 305 305 309
300 300 299 299 299 299 298 299 299 299 299 301 301 302 302 302 304 303 301 302 301 293 287 289 293 295 297 297 297 296 296 295 293 290 289 288 292 292 294 292 285 291 291 289 288 294 295 296 300 302 301 304 305 305
299 298 298 298 298 298 298 298 298 299 300 301 301 302 302 303 304 299 293 300 302 299 290 285 291 296 295 298 297 296 297 296 295 292 292 293 293 294 288 285 289 293 295 297 294 299 299 301 303 304 302 304 305 304
298 298 298 298 297 298 298 298 299 300 300 301 302 302 303 303 301 296 293 299 302 300 291 288 285 292 296 300 296 296 298 297 296 295 294 292 292 295 290 282 289 293 295 297 300 300 299 299 298 302 303 304 305 305
297 297 297 297 297 298 297 298 300 300 302 303 303 303 304 305 303 298 301 303 303 297 296 288 285 287 299 295 293 298 295 296 297 296 296 293 294 291 284 287 291 294 296 297 299 300 300 301 301 301 302 303 302 302
297 297 296 297 297 297 298 299 302 303 302 301 302 305 300 299 295 299 306 307 303 297 291 288 286 280 293 295 297 297 298 292 297 293 293 294 287 281 286 288 290 293 293 295 298 300 299 298 299 299 299 299 300 300
296 296 296 296 297 297 298 300 301 300 301 300 295 296 296 298 304 303 302 298 295 296 297 291 293 284 289 289 290 292 292 290 287 290 295 288 283 288 291 292 293 295 296 299 295 295 296 296 297 297 296 297 298 299
295 296 295 296 296 297 298 300 299 299 297 288 284 289 293 299 296 295 292 291 290 288 290 290 289 287 291 286 287 292 286 285 284 287 290 282 280 288 293 294 296 296 297 297 298 299 297 296 295 296 296 296 296 297
295 295 295 296 296 298 299 299 299 292 289 289 290 294 295 292 288 288 287 291 288 285 290 289 289 289 290 292 288 290 285 284 282 290 287 282 287 291 294 295 295 297 297 297 298 298 297 297 296 296 296 296 296 296
294 295 295 296 297 298 299 299 298 298 296 291 292 290 290 289 284 283 280 284 288 294 296 296 293 294 291 292 287 285 282 280 285 278 280 285 290 292 294 295 295 297 298 298 297 298 298 296 296 295 295 295 295 294
294 295 296 296 297 298 298 298 298 296 291 287 287 283 284 281 283 282 285 288 296 296 295 295 292 294 292 289 286 282 285 282 274 276 279 287 291 293 294 295 296 297 297 298 298 298 296 295 295 295 294 295 295 293
295 295 296 296 297 297 297 298 298 293 286 283 287 280 282 286 286 291 294 293 296 296 295 293 291 292 286 290 287 283 282 275 276 277 282 288 292 294 295 295 295 296 297 297 298 297 296 295 294 294 294 294 294 293
296 296 294 296 296 297 298 296 292 289 286 285 284 283 286 285 285 286 288 287 291 291 291 295 290 287 287 286 283 281 277 274 278 281 287 292 294 296 296 298 297 298 298 297 298 298 296 295 294 294 294 293 293 293
295 287 294 295 296 298 297 292 289 289 285 284 283 288 286 285 285 286 287 287 289 288 287 290 286 287 290 283 283 281 278 281 285 287 290 294 295 296 297 299 299 299 297 296 297 297 296 296 296 294 292 292 292 292
289 289 295 296 296 293 291 290 289 286 283 283 284 283 284 286 285 286 287 287 288 288 291 289 295 288 286 283 283 286 287 288 290 291 293 295 296 298 299 299 301 299 297 297 296 296 295 295 293 292 292 292 291 291
291 293 296 297 295 290 285 284 290 282 283 284 285 285 286 286 287 288 288 289 289 291 290 291 289 289 286 289 290 292 291 293 293 294 295 298 298 298 299 301 301 299 297 296 296 295 294 294 293 292 292 291 289 289
296 296 296 296 294 285 283 283 287 283 280 284 286 285 284 285 286 286 287 286 286 289 288 288 288 291 291 293 297 298 298 296 296 293 294 297 300 299 299 300 299 299 297 297 296 294 294 293 292 292 292 291 290 288
292 290 294 291 286 285 283 282 281 281 282 281 286 284 283 283 282 282 282 285 284 284 285 289 290 292 294 295 297 299 298 297 295 295 295 295 297 298 298 299 299 298 297 297 296 295 294 294 293 293 292 290 290 289
288 293 290 289 284 284 282 283 281 283 281 282 282 285 281 281 282 283 285 282 283 289 290 290 291 292 293 294 296 297 298 298 297 297 295 295 295 296 297 297 298 297 297 297 297 297 297 296 295 294 292 290 289 288
292 292 289 288 284 280 277 283 281 283 282 282 282 280 281 281 284 287 282 286 289 291 291 291 292 294 294 295 296 297 297 297 297 296 297 297 297 299 299 299 299 298 298 298 300 298 298 293 293 293 292 291 289 287
292 287 282 282 282 277 282 280 282 283 281 277 276 277 280 283 286 284 283 286 289 292 291 291 291 291 294 294 293 295 296 297 297 297 297 297 297 298 300 299 299 300 301 300 300 299 296 296 292 293 293 291 290 288
280 274 280 267 280 279 278 279 278 277 276 277 278 279 283 286 281 283 283 286 288 289 290 290 290 293 293 294 295 296 297 296 294 294 298 299 298 297 298 298 298 300 301 299 297 297 297 295 295 293 292 291 289 288
273 276 276 278 277 277 278 276 275 275 276 277 279 283 284 282 281 281 284 283 284 286 286 288 288 290 290 292 291 292 293 295 296 294 296 299 299 298 297 297 297 298 300 300 298 297 297 296 295 294 292 289 287 288
273 271 278 282 280 281 279 279 279 275 276 277 278 280 280 277 278 280 286 286 284 286 288 290 291 290 290 291 293 293 295 297 299 298 299 299 298 299 299 298 298 300 301 300 300 300 298 297 295 295 293 291 290 289
279 280 277 277 281 281 279 279 278 277 278 281 281 277 278 278 276 281 285 286 287 288 289 291 292 292 291 292 292 291 291 295 300 300 300 299 299 298 298 297 296 291 300 301 300 301 300 298 297 295 293 291 290 289
278 278 280 278 279 280 280 279 280 281 281 280 278 279 281 280 282 282 284 285 287 288 287 288 290 291 290 290 291 291 289 288 290 290 291 292 293 294 296 295 294 294 295 297 292 296 300 299 298 296 294 292 290 289
278 280 278 279 279 279 282 284 283 285 284 286 287 286 282 282 284 285 284 284 284 285 287 288 288 288 286 286 286 286 288 287 287 286 287 288 291 294 294 294 294 293 293 295 293 291 288 293 291 292 290 288 287 285
281 283 280 278 278 281 283 286 287 287 286 285 286 283 281 282 284 284 283 283 284 286 285 284 285 285 285 284 284 283 283 285 285 286 287 290 291 293 292 293 293 293 292 293 294 294 292 293 292 290 288 286 285 285
282 282 282 281 279 282 285 284 283 285 283 283 281 286 282 280 277 280 283 282 281 281 282 283 282 282 284 285 285 284 284 284 283 283 284 285 287 289 291 291 292 292 291 290 289 289 289 288 288 288 286 285 284 283
279 281 283 283 278 280 284 285 283 280 279 276 278 280 280 278 275 280 283 283 281 280 281 283 283 284 284 283 282 282 282 283 283 282 282 282 282 282 285 288 288 288 288 287 287 287 285 285 284 283 283 282 281 281
Wind_Speed
16 17 17 16 16 16 18 19 19 18 19 19 17 18 18 16 13 5 2 7 4 4 7 9 7 6 6 4 3 4 6 3 4 6 3 3 3 4 4 4 6 3 4 2 4 4 5 10 10 6 6 11 11 9
16 16 15 14 16 18 17 18 19 19 19 19 19 18 19 18 14 8 3 3 5 4 7 13 20 23 23 20 5 3 3 3 3 2 1 3 3 3 5 4 2 3 2 4 2 2 4 7 12 16 18 14 9 10
14 14 16 17 17 18 19 19 20 20 20 20 19 18 18 18 16 9 3 2 2 4 7 3 8 6 7 17 17 4 3 3 2 3 1 2 5 2 3 3 4 4 0 3 5 3 10 6 11 12 11 10 10 10
13 14 15 16 17 18 18 19 20 20 20 21 20 19 18 17 15 11 3 2 2 2 4 8 3 8 5 8 15 21 1 3 2 1 2 2 4 4 3 6 3 3 5 6 4 6 13 5 13 13 15 16 17 11
12 13 15 16 17 18 19 20 21 21 21 21 21 20 19 18 16 9 6 6 8 4 4 7 13 7 4 6 12 16 11 3 2 2 3 4 3 4 3 3 3 2 4 4 3 12 7 9 12 14 16 16 15 12
11 13 14 16 18 18 19 20 21 22 23 23 22 20 17 16 13 4 4 1 4 5 2 5 5 4 3 2 7 11 8 3 2 2 3 3 3 2 2 3 5 4 6 4 5 13 6 9 10 13 14 16 17 16
12 13 14 17 19 20 20 22 23 23 24 23 23 23 20 15 4 4 2 2 2 3 2 5 5 4 3 2 1 2 4 3 3 2 3 2 3 2 2 3 5 8 8 8 9 9 6 11 8 11 12 15 19 18
12 13 14 17 19 20 21 22 22 22 22 24 25 22 19 13 6 4 6 11 5 3 3 3 5 5 2 2 2 1 2 3 4 2 1 3 2 0 3 5 5 6 6 6 11 8 5 4 7 9 10 10 12 13
12 13 15 17 19 20 21 21 21 20 25 27 22 7 3 2 2 3 6 6 6 3 3 2 2 5 4 1 1 1 2 3 1 2 2 0 1 4 6 3 4 4 3 6 7 8 9 9 8 9 8 8 7 11
12 14 15 17 19 20 19 20 20 24 26 20 6 2 2 1 13 9 2 3 4 5 5 4 2 4 1 1 2 1 1 2 2 3 1 2 4 5 5 5 4 4 3 4 6 11 8 9 9 8 8 8 7 8
12 14 16 17 19 19 18 18 21 23 10 5 5 3 4 12 2 1 2 3 2 3 4 4 4 4 2 3 4 1 2 1 2 2 1 3 4 4 2 2 1 2 4 5 5 5 5 4 5 7 8 10 9 10
14 15 16 17 18 18 18 17 19 5 2 5 6 6 4 2 2 1 3 3 4 5 3 3 4 5 4 2 1 1 1 2 4 3 1 3 5 4 3 2 4 4 6 6 5 7 7 7 6 6 7 8 9 10
14 16 17 18 18 17 15 17 18 19 11 2 3 3 2 2 3 6 4 3 3 2 2 3 3 3 1 1 1 2 2 4 2 3 4 6 3 3 4 2 4 3 4 6 6 6 7 6 9 9 8 8 9 9
15 17 18 19 19 15 18 19 19 10 3 2 3 5 5 4 5 5 4 2 3 4 3 8 3 4 2 2 2 3 2 3 3 2 6 4 5 4 4 2 6 6 4 5 6 7 6 6 7 8 9 9 9 10
15 18 20 10 13 18 20 21 20 2 2 3 3 6 6 5 3 3 3 2 4 4 2 4 3 2 2 2 2 1 1 3 6 6 5 4 3 4 5 3 4 5 4 3 3 6 7 6 6 8 7 8 9 9
15 15 1 17 21 21 23 15 2 2 2 3 6 6 4 2 3 2 1 3 2 2 3 1 2 3 5 4 4 6 5 7 6 5 5 2 5 5 6 4 4 5 5 5 4 5 7 6 7 6 6 8 9 10
12 3 11 19 22 24 21 3 2 5 5 5 6 5 6 4 5 4 3 4 1 2 2 3 2 4 2 2 2 5 6 5 5 4 4 5 7 6 5 5 6 5 5 5 5 4 6 6 6 6 8 5 8 8
3 6 16 19 15 9 2 2 4 5 7 5 4 3 3 3 3 4 4 2 2 2 2 3 3 4 4 4 4 4 4 4 4 4 4 4 5 4 5 6 6 6 7 6 6 5 5 6 7 4 5 5 6 6
7 10 18 19 10 4 3 4 3 5 6 3 4 3 3 4 4 5 4 4 4 3 3 3 4 4 4 4 4 3 2 3 4 4 5 5 5 6 5 5 5 6 8 8 7 6 4 4 4 4 4 3 5 3
17 16 14 11 1 1 4 5 1 4 4 4 3 4 3 4 4 3 4 3 3 3 4 4 4 3 3 3 3 4 6 2 3 4 4 4 3 6 7 7 4 4 5 7 6 6 6 4 3 5 4 4 6 4
8 4 8 4 2 2 3 3 4 4 4 4 4 3 5 3 3 3 4 0 1 2 2 3 4 5 7 7 7 5 5 4 5 5 5 3 4 6 5 5 5 4 4 6 7 6 8 6 5 6 6 6 5 5
3 4 2 1 1 2 3 4 4 4 3 4 4 3 5 3 3 3 1 2 3 3 4 6 8 8 11 11 12 10 12 9 8 5 2 3 3 3 4 5 6 7 6 6 7 8 6 7 6 6 8 7 6 5
4 1 1 2 2 2 7 2 3 4 3 4 5 5 3 3 3 3 2 3 2 3 7 8 10 11 12 13 13 11 7 8 6 6 6 7 4 4 3 6 6 8 6 4 5 6 7 10 8 8 9 8 7 6
2 0 2 2 2 5 4 3 1 3 3 4 4 5 5 4 5 4 3 1 4 5 8 10 9 8 8 7 5 6 8 6 5 3 4 4 4 4 5 5 6 6 7 7 7 7 8 9 9 8 9 9 8 7
2 4 1 5 3 3 4 3 2 2 4 4 4 3 3 3 2 0 2 4 6 7 8 8 9 7 7 7 9 8 7 6 6 7 4 4 3 3 3 3 3 4 6 8 6 9 9 10 9 9 10 10 11 9
1 3 4 3 2 2 3 4 3 3 5 4 4 4 4 4 2 4 3 7 6 7 10 9 9 7 8 8 8 9 10 9 8 4 4 4 4 4 7 6 4 4 6 8 10 11 11 12 12 13 10 10 11 12
2 4 3 4 2 2 4 3 3 2 3 3 3 4 4 5 6 5 5 5 7 9 9 8 8 9 8 9 10 10 10 9 4 3 4 7 7 5 2 3 5 1 6 9 10 13 15 14 13 12 11 9 11 11
4 3 4 2 2 3 4 2 3 3 2 2 4 2 5 5 4 5 4 9 10 10 8 8 9 9 9 9 9 11 13 11 6 4 4 9 9 10 10 6 6 6 2 6 9 10 11 14 15 14 14 13 10 10
3 3 1 8 4 3 3 3 3 3 2 1 1 3 3 3 4 4 6 8 9 8 8 9 10 9 9 8 10 10 12 13 15 17 16 10 9 10 8 8 7 6 4 1 3 4 11 11 13 14 15 12 10 10
3 3 2 3 3 3 3 4 3 2 2 3 1 3 3 2 2 5 7 8 8 9 8 8 8 9 10 11 11 14 10 10 10 9 7 10 7 6 8 8 8 7 5 3 5 7 10 11 12 11 10 10 9 9
2 2 3 3 4 4 4 4 5 4 1 1 1 2 4 3 1 7 10 9 9 8 9 10 9 10 10 11 10 10 12 13 16 17 13 9 9 10 10 9 7 6 7 5 4 4 8 10 10 12 13 13 13 12
3 4 2 3 4 4 1 2 1 2 2 2 4 2 3 3 3 4 8 9 9 9 10 10 9 9 10 8 9 8 10 8 11 12 15 10 10 11 10 9 9 8 8 9 9 9 10 7 4 9 12 14 13 12
2 3 3 3 3 3 2 1 2 3 3 2 3 4 3 3 3 4 3 7 7 7 7 7 7 7 10 11 12 9 11 9 14 17 19 18 18 14 9 9 9 10 12 10 9 9 11 14 12 14 14 16 16 15
Wind_Direction
301 301 304 309 316 326 327 325 323 321 318 318 321 312 320 316 310 307 257 185 198 240 265 247 257 216 265 214 248 321 324 326 16 15 359 300 296 314 294 271 309 305 318 256 213 237 248 8 319 299 341 314 293 308
302 311 318 327 327 324 322 323 323 321 320 319 315 318 316 317 305 308 261 190 213 240 267 292 268 259 248 244 296 269 298 314 215 339 325 300 293 300 316 294 307 317 266 291 244 296 256 280 264 275 278 278 287 308
319 327 330 326 324 328 326 325 322 321 322 320 319 313 312 312 320 319 261 191 205 258 272 298 265 262 217 222 216 217 221 187 222 180 233 271 277 270 295 295 280 279 22 269 291 259 307 263 330 309 305 290 332 324
325 322 326 326 326 326 326 325 324 322 321 320 316 311 307 303 305 307 269 218 183 287 278 281 280 265 217 176 193 212 150 86 118 167 224 243 262 205 272 275 270 249 314 297 254 286 322 339 331 320 339 3 3 356
320 324 328 327 327 329 327 325 323 322 320 317 315 311 309 309 309 301 263 231 204 197 289 292 300 265 282 181 196 203 209 158 184 183 225 238 233 250 227 287 268 280 301 330 323 301 300 290 312 357 358 355 10 0
319 323 325 326 327 325 324 323 322 319 316 315 311 307 302 301 301 292 299 150 208 169 269 294 284 289 311 30 156 176 182 180 197 220 234 260 249 235 282 286 274 275 307 306 299 313 297 339 10 19 351 350 359 6
320 322 328 326 327 326 326 325 321 321 318 310 304 299 294 285 257 227 276 357 132 115 242 275 295 280 292 122 97 136 165 201 209 232 223 243 277 205 238 243 283 323 326 337 342 340 358 32 15 12 353 3 353 347
320 324 330 327 324 330 325 327 324 324 316 311 308 303 288 249 232 237 242 241 197 227 241 275 274 332 233 342 2 161 192 193 205 261 242 225 282 205 259 254 295 313 347 356 347 7 6 45 22 17 13 4 6 343
321 326 329 332 329 325 330 324 322 334 325 320 316 311 82 87 164 217 299 237 184 235 287 213 254 270 344 254 185 219 231 248 218 232 245 239 2 233 220 229 300 326 5 310 339 11 21 29 28 21 21 15 9 354
326 329 333 330 328 329 325 324 343 339 325 330 8 341 165 71 316 309 176 192 164 196 227 248 181 265 65 310 286 162 280 284 269 238 218 186 260 269 257 221 261 314 337 8 12 10 2 21 13 18 20 13 15 4
328 330 328 328 326 326 319 337 345 344 358 10 7 339 307 312 328 203 234 216 169 248 218 244 220 223 261 201 238 180 205 256 306 299 329 302 284 248 223 179 135 117 118 73 91 86 41 38 23 23 21 21 13 18
319 323 325 324 326 319 321 334 340 6 270 255 280 285 271 298 317 294 221 200 200 235 205 200 222 196 263 194 167 220 187 39 255 328 308 265 254 258 205 159 106 136 108 86 69 65 57 49 35 25 33 19 20 22
318 320 319 321 322 321 329 331 331 325 323 317 198 234 231 250 221 213 224 248 226 188 16 300 269 212 213 146 250 87 109 235 13 33 239 232 252 231 199 110 113 124 97 90 65 61 72 62 48 39 29 34 31 34
318 316 314 314 312 314 328 326 327 337 306 277 274 255 206 219 227 202 205 179 46 266 292 301 245 192 164 151 168 132 223 75 21 306 244 246 230 211 165 144 139 177 156 110 90 82 89 75 63 51 36 27 36 40
317 316 318 330 349 335 326 323 321 247 219 252 239 237 233 229 267 250 236 270 233 283 332 310 280 176 209 194 204 103 116 254 204 233 236 246 213 166 140 149 178 185 172 139 112 113 123 102 78 61 46 51 44 41
320 320 288 349 335 328 319 319 322 122 240 227 231 252 255 317 283 330 318 273 274 314 297 227 272 272 227 170 143 210 142 223 246 225 243 240 187 173 147 138 157 187 163 162 140 125 122 120 105 90 63 52 50 43
323 236 307 317 320 318 316 266 246 221 222 235 240 231 256 268 250 256 214 244 230 334 248 148 223 207 301 260 230 165 204 223 221 239 234 218 207 198 147 164 152 165 132 145 122 122 115 121 111 93 89 61 67 60
248 281 298 310 318 311 254 249 248 244 246 239 241 253 210 228 247 264 255 240 153 249 264 236 149 208 220 222 248 225 232 273 251 233 245 232 210 208 180 200 169 166 138 142 126 117 115 117 112 110 104 97 84 65
284 297 304 309 314 297 296 286 252 272 255 263 264 248 235 253 239 246 266 262 205 219 268 255 227 205 225 229 239 277 232 216 293 264 246 239 184 189 182 215 161 154 136 144 144 153 142 143 140 126 121 95 92 72
301 308 302 310 357 255 279 271 301 276 290 287 291 276 257 248 266 247 257 253 181 196 201 226 226 231 225 270 262 240 254 214 209 283 273 269 175 168 177 184 202 172 136 118 119 132 124 110 111 124 122 117 110 93
319 285 315 335 323 236 265 301 288 244 287 284 305 325 269 284 275 294 285 190 137 224 282 25 324 309 313 296 288 270 242 205 220 217 240 252 219 184 178 170 167 158 159 144 152 160 146 164 157 144 134 117 103 104
261 320 287 256 299 279 254 240 231 275 280 264 301 218 252 269 263 244 283 50 50 23 355 329 326 324 314 310 310 297 280 264 233 226 194 155 160 174 185 165 149 172 174 174 166 174 155 141 144 135 124 118 108 107
319 321 295 286 295 281 264 27 274 301 287 302 308 302 298 305 265 356 46 45 51 327 338 327 315 309 303 300 299 299 285 244 241 225 223 215 200 202 163 161 162 161 169 191 166 155 149 138 140 137 132 126 123 117
291 36 316 302 266 279 319 291 356 269 286 343 303 303 304 315 323 10 62 344 329 335 356 337 326 316 317 311 314 327 334 324 288 273 218 166 176 202 185 182 171 175 178 168 159 152 144 144 139 143 143 137 137 134
344 306 233 291 248 281 283 279 288 330 288 299 273 276 269 300 258 129 78 13 332 337 337 337 328 325 326 330 332 329 332 342 331 309 269 192 131 108 123 186 174 157 146 146 154 153 151 142 151 159 154 149 146 146
323 248 177 234 261 209 310 319 295 276 298 275 281 306 355 295 288 56 52 349 332 341 333 338 335 344 356 349 332 335 330 320 305 277 277 204 198 182 171 170 161 197 182 169 157 161 160 159 159 162 150 148 142 143
283 287 237 230 239 327 284 265 266 254 272 285 317 336 337 316 41 8 329 10 329 327 324 331 345 354 353 352 348 349 334 323 351 25 36 49 41 24 66 161 203 228 156 162 165 170 163 163 168 169 154 154 161 156
243 265 232 244 266 214 248 245 263 263 270 289 322 348 346 27 9 322 331 327 326 324 334 344 358 358 360 0 358 1 359 346 26 50 81 50 47 34 24 20 20 11 137 161 167 163 176 171 167 166 162 164 161 156
245 251 280 273 253 234 216 232 258 248 211 159 7 348 69 56 331 310 317 324 324 335 348 350 0 358 4 5 9 12 10 0 18 32 45 39 33 23 2 7 13 12 4 110 86 165 171 172 171 170 165 158 150 141
252 179 244 264 254 249 222 201 226 251 264 134 223 116 113 143 3 348 350 351 351 347 345 354 4 3 11 12 4 12 11 5 12 17 19 23 14 5 10 13 4 357 357 64 108 113 106 107 108 115 121 128 139 136
236 203 236 228 257 246 220 218 242 250 214 221 220 141 117 156 108 29 12 356 354 5 9 9 10 13 11 16 9 2 3 0 358 3 10 15 10 16 15 9 6 12 16 31 64 120 138 145 148 144 145 147 154 148
213 227 252 265 279 285 352 110 335 93 60 35 29 27 76 69 45 13 8 355 3 6 5 10 11 8 9 11 17 16 8 1 2 1 9 9 7 11 16 14 17 22 37 49 48 57 62 72 105 130 130 121 114 110
251 219 233 259 302 286 285 356 175 100 79 91 51 32 56 75 80 16 356 6 356 351 350 0 6 11 19 22 14 3 9 5 7 14 16 22 24 21 18 22 31 36 39 38 46 67 82 87 81 82 82 91 96 98